Regional Weather Roundup
Issued by NWS Charleston, SC

Current Version | Previous Version | Text Only | Print | Product List | Glossary Off
Versions: 1 2 3 4 5 6 7 8 9 10 11 12 13 14 15 16 17 18 19 20 21 22 23 24 25 26 27 28 29 30 31 32 33 34 35 36 37 38 39 40 41 42 43 44 45 46 47 48 49 50

000
ASUS42 KCHS 162027
RWRCHS

REGIONAL WEATHER ROUNDUP
NATIONAL WEATHER SERVICE CHARLESTON SC
300 PM EST MON JAN 16 2017

NOTE: "FAIR" INDICATES FEW OR NO CLOUDS BELOW 12,000 FEET WITH NO
SIGNIFICANT WEATHER AND/OR OBSTRUCTIONS TO VISIBILITY.

NOT ALL STATIONS ARE QUALITY CONTROLLED. USE DATA WITH CAUTION...
ESPECIALLY DEWPOINT OBSERVATIONS.

SCZ027-030-031-034>040-042>050-162100-
...SOUTHEAST SOUTH CAROLINA...

CITY           SKY/WX    TMP DP  RH WIND       PRES   REMARKS
N CHARLESTON   CLOUDY    63  57  81 N7        30.30F
WATERFRONT PRK   N/A     58  57  96 VRB3      30.31F
MOUNT PLEASANT CLOUDY    63  59  88 CALM      30.32R
JOHNS ISLAND   CLOUDY    64  61  88 NE7       30.31S
PINOPOLIS        N/A     55  55 100 VRB3      30.24S
MONCKS CORNER  CLOUDY    57  55  94 CALM      30.33R
SUMMERVILLE    CLOUDY    61  61 100 CALM      30.32F
BEAUFORT MCAS  MOSUNNY   67  59  75 E7        30.29F
BEAUFORT ARPT  MOCLDY    66  59  77 NE9       30.29S
HILTON HEAD IS MOSUNNY   68  61  77 NE6       30.29F
WALTERBORO     CLOUDY    68  68 100 E5        30.31S
ALLENDALE      FAIR      70  57  64 VRB5      30.27F

...SOUTHERN MIDLANDS AND PEE DEE...

CITY           SKY/WX    TMP DP  RH WIND       PRES   REMARKS
GEORGETOWN     CLOUDY    55  52  88 NE8       30.34R
KINGSTREE      CLOUDY    54  52  94 CALM      30.34S
ORANGEBURG     CLOUDY    58  55  90 NE6       30.31F
BARNWELL       FAIR      66  59  77 E6        30.30S
AIKEN          CLOUDY    55  54  94 NE8       30.34S FOG
MANNING        CLOUDY    55  52  88 NE5       30.33S
COLUMBIA       CLOUDY    58  53  84 E8        30.32S
SUMTER         CLOUDY    54  51  90 E3        30.31F
FLORENCE       CLOUDY    53  51  93 E3        30.35S FOG
MYRTLE BEACH   CLOUDY    61  52  72 E5        30.35F
N MYRTLE BEACH PTSUNNY   61  50  67 NE6       30.33F

$$

GAZ063-065-086>088-099>101-113>116-118-119-134>141-150-162100-
...SOUTHEAST GEORGIA...

CITY           SKY/WX    TMP DP  RH WIND       PRES   REMARKS
SAVANNAH ARPT  MOSUNNY   74  58  57 VRB7      30.27F
HUNTER AAF     SUNNY     72  60  65 E10       30.25F
FORT STEWART   PTSUNNY   73  60  63 CALM      30.24F
STATESBORO     MOSUNNY   74  58  57 S3        30.26S
SYLVANIA       CLOUDY   N/A N/A N/A SE6       30.27S
CLAXTON        FAIR      74  67  78 CALM      30.25F

...CSRA...CENTRAL AND FAR SOUTHEAST GEORGIA...

CITY           SKY/WX    TMP DP  RH WIND       PRES   REMARKS
THOMSON        MOSUNNY   68  59  73 NE3       30.32S
AUGUSTA-BUSH   PTSUNNY   73  56  54 E9        30.26F
AUGUSTA-DANIEL MOSUNNY   71  55  56 E8        30.28F
SWAINSBORO     FAIR      75  50  41 SW8       30.25F
VIDALIA        SUNNY     79  55  44 S9G18     30.24S
EASTMAN        CLOUDY    80  31  17 SW8       30.26S
HAZLEHURST     FAIR      76  55  48 S3        30.23S
ALMA           CLOUDY    77  54  44 S13       30.24F
WAYCROSS       MOSUNNY   78  58  49 S3        30.24S
JESUP          FAIR      77  55  47 S7        30.25S
BAXLEY         FAIR      79  61  53 S9        30.23F
BRUNSWICK      MOSUNNY   70  63  78 E10       30.28S
SAINT SIMONS   MOSUNNY   67  59  75 E15       30.27F

$$

SCZ027-028-034-036>038-045-046-048>050-GAZ119-141-162100-
...LAKE AND SUPPLEMENTAL COASTAL OBSERVATIONS...

STATION/POSITION TIME  TEMP    WIND        PRES    WAVE   SWELL
                       AIR SEA DIR/SP/G            HT/PER HT/PER/DIR
                 (UTC) (F)     (DEG/KT/KT) (MB)    (FT/S) (FT/S/D)
WINYAH BAY       1945   53      60/  8     1027.0F
LAKE MURRAY      2020   56      70/  4/  7 1026.1S
ACE BASIN NERRS  1945   67      70/  2     1026.0S
FORT PULASKI     2000   57 56  100/ 10/ 12 1025.9
SAPELO ISLAND    2000   69      70/  8     1025.0

$$

ANZ835-935-AMZ111-154-330-350-352-354-370-450-454-472-162100-
...C-MAN AND BUOY OBSERVATIONS...

STATION/POSITION TIME  TEMP    WIND        PRES    WAVE   SWELL
                       AIR SEA DIR/SP/G            HT/PER HT/PER/DIR
                 (UTC) (F)     (DEG/KT/KT) (MB)    (FT/S) (FT/S/D)
BUOY 41004       1950   67 71   40/ 14/ 16 1025.3R   5/ 5   3/120/ 8
BUOY 41008       1950   61 60   40/ 10/ 12 1025.1F   2/11   2/ 80/11
FOLLY BEACH CMAN 2000   56      60/  8/  9 1027.1F
CAPERS NEARSHORE 2008   53 54   40/ 12/ 17 1026.7R
FRIPP NEARSHORE  2008   57 56   80/ 10/ 14 1025.9S


STATION/POSITION TIME  TEMP    WIND        PRES    WAVE   SWELL
                       AIR SEA DIR/SP/G            HT/PER HT/PER/DIR
                 (UTC) (F)     (DEG/KT/KT) (MB)    (FT/S) (FT/S/D)
5E ST. MARYS GA  2000      63                N/A     2/10   2/100/12
FRYING PAN BUOY  2010   64 71   30/ 16/ 17 1026.5
BUOY 41025       1950   54 74   10/ 16/ 19 1027.8R   4/ 8   2/ 90/ 8
CAPE LOOKOUT NC  2000   52      30/ 16/ 18 1027.4F
BUOY 41002       1950   70 72  120/  6/  8 1026.2R   4/ 8   3/ 20/ 8
BUOY 41010       NOT AVBL
ST AUGUSTINE FL  2000   68 66   80/  7/  7 1025.2F


$$



USA.gov is the U.S. government's official web portal to all federal, state and local government web resources and services.